Regional Weather Roundup
Issued by NWS

Home | Current Version | Previous Version | Graphics & Text | Print | Product List | Glossary On
Versions: 1 2 3 4 5 6 7 8 9 10 11 12 13 14 15 16 17 18 19 20 21 22 23 24 25 26 27 28 29 30 31 32 33 34 35 36 37 38 39 40 41 42 43 44 45 46 47 48
000
ASUS43 KDMX 021007
RWRIA

WEATHER ROUNDUP FOR IOWA
NATIONAL WEATHER SERVICE DES MOINES IA
500 AM CDT TUE SEP 02 2014

NOTE: "FAIR" INDICATES FEW OR NO CLOUDS BELOW 12,000 FEET WITH NO
SIGNIFICANT WEATHER AND/OR OBSTRUCTIONS TO VISIBILITY.

* - THESE STATIONS ARE NOT NWS STATIONS...THUS NOT UNDER NWS
QUALITY CONTROL.  THEY ALSO DO NOT REPORT WEATHER SUCH
AS PRECIPITATION OR FOG.

IAZ001>003-012>014-020>022-031>034-043>046-021100-
   NORTHWEST IOWA

CITY           SKY/WX    TMP DP  RH WIND       PRES   REMARKS
CARROLL *      CLEAR     55  55 100 CALM      29.92R
CHEROKEE *     PTCLDY    57  57 100 CALM      29.94R
DENISON *      PTCLDY    57  57 100 NW3       29.92R
LE MARS *      CLEAR     57  55  94 W7        29.94R
ORANGE CITY *  CLEAR     57  54  88 NW6       29.94S
SHELDON *      CLEAR     54  54 100 CALM      29.92S
SIOUX CITY     CLEAR     55  54  96 CALM      29.94
SPENCER        MOCLDY    58  55  90 NW6       29.92S
STORM LAKE *   CLEAR     55  55 100 NW6       29.93R
$$

IAZ055>058-069>071-079>083-090>094-021100-
   SOUTHWEST IOWA

CITY           SKY/WX    TMP DP  RH WIND       PRES   REMARKS
ATLANTIC *     CLEAR     57  57 100 CALM      29.93R
AUDUBON *      CLEAR     57  55  94 CALM      29.94R
CLARINDA *     CLEAR     61  61 100 N5        29.94S FOG
COUNCIL BLFS * CLEAR     59  59 100 CALM      29.94R
CRESTON *      CLEAR     59  59 100 NW6       29.93R
HARLAN  *      CLEAR     55  55 100 CALM      29.97R
LAMONI         CLEAR     62  61  96 S5        29.90F
RED OAK *      CLEAR     59  59 100 SW3       29.95R
SHENANDOAH *     N/A     61  61 100 NW6       29.95S
$$

IAZ047>049-059>061-072>074-084-021100-
   CENTRAL IOWA

CITY           SKY/WX    TMP DP  RH WIND       PRES   REMARKS
AMES           CLOUDY    61  59  93 NE3       29.90R
ANKENY *       CLEAR     61  59  94 NW3       29.91R
CHARITON *     CLEAR     61  61 100 CALM      29.89F
DES MOINES     PTCLDY    64  58  80 CALM      29.90R
GRINNELL*      MOCLDY    61  59  94 W7        29.91R
KNOXVILLE *    CLEAR     61  59  94 W7        29.89R
MARSHALLTOWN   CLOUDY    63  60  90 W8        29.90S
PELLA *          N/A     61  61 100 CALM      29.90R FOG
PERRY *          N/A     59  57  94 W5        29.92R
$$

IAZ004>006-015-016-023>025-035-036-021100-
   NORTH CENTRAL IOWA

CITY           SKY/WX    TMP DP  RH WIND       PRES   REMARKS
ALGONA *       CLOUDY    61  57  88 N9        29.93R
CLARION *      LGT RAIN  61  57  88 N7        29.91S
ESTHERVILLE    CLOUDY    58  55  90 W7        29.92R
FORT DODGE *   CLOUDY    61  57  88 CALM      29.92R
MASON CITY     TSTM      62  58  86 SW17G26   29.94R
FOREST CITY *  HVY RAIN  61  61 100 SW8       29.94R
IOWA FALLS *   RAIN      61  59  94 NW6       29.92R
$$

IAZ007>011-017>019-026>030-037>042-050>054-066-021100-
   NORTHEAST IOWA

CITY           SKY/WX    TMP DP  RH WIND       PRES   REMARKS
CEDAR RAPIDS   PTCLDY    61  61 100 CALM      29.87S
CHARLES CITY * MOCLDY    61  59  94 W8G15     29.91R
CLINTON *      MOCLDY    61  59  94 CALM      29.90S VSB<1/4
DECORAH *      CLEAR     57  57 100 CALM      29.87S
DUBUQUE        CLEAR     58  57  97 CALM      29.89S
MONTICELLO *   CLEAR     59  59 100 CALM      29.88S
OELWEIN *      CLOUDY    59  59 100 CALM      29.89S
WATERLOO       TSTM      62  59  90 NW7       29.90R
$$

IAZ064-065-067-068-078-021100-
   EAST CENTRAL IOWA

CITY           SKY/WX    TMP DP  RH WIND       PRES   REMARKS
DAVENPORT      FOG       57  57 100 CALM      29.88F VSB 3/4
IOWA CITY      PTCLDY    62  61  96 CALM      29.89S
MT. PLEASANT * MOCLDY    64  63  94 SW3       29.89F FOG
MUSCATINE *    FOG       63  61  94 CALM      29.88F VSB 1/4
QUAD CITIES    FOG       63  62  97 CALM      29.88R VSB 1/2
$$

IAZ062-063-075>077-085>089-095>099-021100-
   SOUTHEAST IOWA

CITY           SKY/WX    TMP DP  RH WIND       PRES   REMARKS
BURLINGTON     MOCLDY    66  66 100 SW3       29.89S
FAIRFIELD *    FOG       63  61  94 SW3       29.89F VSB 1
FORT MADISON * CLEAR     68  66  94 CALM      29.90F
KEOKUK *       MOCLDY    68  68 100 SW6       29.89S
OSKALOOSA *      N/A     61  61 100 SW3       29.89F FOG
CENTERVILLE *  CLEAR     61  61 100 S3        29.91F
OTTUMWA        PTCLDY    62  61  96 S6        29.89S
WASHINGTON *   PTCLDY    63  63 100 CALM      29.89S FOG
$$

ABBREVIATIONS USED IN REMARKS
   TC - TEMPERATURES IN CELSIUS
  WCI - WIND CHILL INDEX
   HX - HEAT INDEX
  VSB - VISIBILITY
$$




USA.gov is the U.S. government's official web portal to all federal, state and local government web resources and services.